ABW5927 UBBB-UAAA

Flight info

Callsign ABW5927
Flight time 2h 41m
Altitude 33000
Route NAMAS N35 RODAR A909 TUNEK B143 KRS A480 OTBOR/K0889F330 N147 GENDI Z621 ARBOL M610 TOMGO Z370 EKLAT
Aircraft B77L/H-SDE1E2E3FGHIJ2J3J4J5M1RWXY/LB1D1

Departure

Time 2026-05-06 16:38
Airport Heydar Aliyev International Airport (UBBB)

Arrival

Time 2026-05-06 19:20
Airport Almaty International Airport (UAAA)
Time Latitude Longitude Altitude Speed Heading
2026-05-06 15:54 40.46197 50.05861 19 ft 0 kts 268°
2026-05-06 16:28 40.46198 50.05887 23 ft 4 kts 261°
2026-05-06 16:28 40.46205 50.05921 23 ft 4 kts 245°
2026-05-06 16:28 40.46219 50.05950 23 ft 4 kts 219°
2026-05-06 16:29 40.46239 50.05963 23 ft 2 kts 179°
2026-05-06 16:29 40.46240 50.05963 22 ft 0 kts 179°
2026-05-06 16:33 40.46239 50.05963 23 ft 1 kts 179°
2026-05-06 16:33 40.46219 50.05963 24 ft 5 kts 180°
2026-05-06 16:34 40.46121 50.05964 19 ft 7 kts 180°
2026-05-06 16:34 40.46071 50.05965 19 ft 7 kts 179°
2026-05-06 16:34 40.46019 50.05965 19 ft 7 kts 179°
2026-05-06 16:34 40.45969 50.05966 19 ft 7 kts 179°
2026-05-06 16:35 40.45918 50.05967 19 ft 7 kts 179°
2026-05-06 16:35 40.45868 50.05975 19 ft 7 kts 154°
2026-05-06 16:35 40.45846 50.06033 19 ft 7 kts 100°
2026-05-06 16:35 40.45826 50.06093 19 ft 7 kts 139°
2026-05-06 16:36 40.45775 50.06108 19 ft 8 kts 180°
2026-05-06 16:36 40.45740 50.06108 19 ft 8 kts 180°
2026-05-06 16:36 40.45689 50.06116 19 ft 8 kts 158°
2026-05-06 16:36 40.45655 50.06166 21 ft 8 kts 109°
2026-05-06 16:37 40.45653 50.06243 6 ft 10 kts 83°
2026-05-06 16:37 40.45695 50.06311 15 ft 10 kts 27°
2026-05-06 16:37 40.45764 50.06320 15 ft 10 kts
2026-05-06 16:37 40.45924 50.06320 14 ft 41 kts 359°
2026-05-06 16:38 40.46437 50.06314 18 ft 106 kts 359°
2026-05-06 16:38 40.47371 50.06301 15 ft 159 kts 359°
2026-05-06 16:38 40.48569 50.06277 256 ft 177 kts 358°
2026-05-06 16:38 40.49728 50.06020 910 ft 166 kts 342°
2026-05-06 16:39 40.50869 50.05633 1404 ft 172 kts 347°
2026-05-06 16:39 40.52069 50.05339 1862 ft 180 kts 349°
2026-05-06 16:39 40.53370 50.05058 2094 ft 199 kts 349°
2026-05-06 16:39 40.54787 50.04727 2393 ft 217 kts 348°
2026-05-06 16:40 40.56339 50.04365 2727 ft 234 kts 349°
2026-05-06 16:40 40.57991 50.04314 3182 ft 245 kts
2026-05-06 16:40 40.59587 50.05185 3748 ft 258 kts 33°
2026-05-06 16:40 40.60785 50.07018 4294 ft 273 kts 62°
2026-05-06 16:41 40.61237 50.09463 4974 ft 280 kts 88°
2026-05-06 16:41 40.61071 50.12058 5483 ft 289 kts 99°
2026-05-06 16:41 40.60670 50.14676 6127 ft 293 kts 103°
2026-05-06 16:41 40.60222 50.17313 6767 ft 298 kts 103°
2026-05-06 16:42 40.59828 50.19968 7403 ft 301 kts 101°
2026-05-06 16:42 40.59494 50.22709 7964 ft 305 kts 99°
2026-05-06 16:42 40.59191 50.25503 8025 ft 312 kts 99°
2026-05-06 16:42 40.58897 50.28325 8024 ft 310 kts 99°
2026-05-06 16:43 40.58423 50.31040 8028 ft 302 kts 114°
2026-05-06 16:43 40.57533 50.33537 8515 ft 303 kts 120°
2026-05-06 16:43 40.56551 50.36014 9127 ft 308 kts 121°
2026-05-06 16:43 40.55574 50.38541 9762 ft 311 kts 121°
2026-05-06 16:44 40.54607 50.41116 10311 ft 317 kts 120°
2026-05-06 16:44 40.53611 50.43799 10526 ft 338 kts 120°
2026-05-06 16:44 40.52554 50.46664 10690 ft 359 kts 119°
2026-05-06 16:44 40.51432 50.49710 10885 ft 381 kts 119°
2026-05-06 16:45 40.50256 50.52915 11254 ft 395 kts 119°
2026-05-06 16:45 40.49049 50.56210 11869 ft 404 kts 118°
2026-05-06 16:45 40.47823 50.59556 12670 ft 408 kts 118°
2026-05-06 16:45 40.46608 50.62870 13510 ft 410 kts 118°
2026-05-06 16:46 40.45361 50.66263 14234 ft 416 kts 120°
2026-05-06 16:46 40.44089 50.69713 14845 ft 422 kts 120°
2026-05-06 16:46 40.42804 50.73192 15546 ft 427 kts 120°
2026-05-06 16:46 40.41501 50.76720 16266 ft 430 kts 121°
2026-05-06 16:47 40.40188 50.80271 16948 ft 435 kts 121°
2026-05-06 16:47 40.38859 50.83859 17622 ft 440 kts 121°
2026-05-06 16:47 40.37519 50.87491 18273 ft 442 kts 120°
2026-05-06 16:47 40.36621 50.91419 18617 ft 462 kts 101°
2026-05-06 16:48 40.36733 50.95670 19186 ft 472 kts 81°
2026-05-06 16:48 40.37513 50.99858 19764 ft 474 kts 78°
2026-05-06 16:48 40.38341 51.04065 20304 ft 479 kts 78°
2026-05-06 16:48 40.39165 51.08312 20891 ft 482 kts 78°
2026-05-06 16:49 40.39977 51.12603 21466 ft 486 kts 78°
2026-05-06 16:49 40.40776 51.16926 22038 ft 489 kts 79°
2026-05-06 16:49 40.41569 51.21287 22586 ft 493 kts 79°
2026-05-06 16:49 40.42362 51.25687 23130 ft 497 kts 79°
2026-05-06 16:50 40.43159 51.30121 23652 ft 501 kts 79°
2026-05-06 16:50 40.43961 51.34588 24089 ft 505 kts 79°
2026-05-06 16:50 40.44758 51.39031 24506 ft 509 kts 79°
2026-05-06 16:50 40.45545 51.43580 24896 ft 512 kts 83°
2026-05-06 16:51 40.45955 51.48224 25252 ft 513 kts 92°
2026-05-06 16:51 40.45896 51.52900 25667 ft 512 kts 99°
2026-05-06 16:51 40.45438 51.57511 26099 ft 509 kts 108°
2026-05-06 16:51 40.44618 51.62031 26491 ft 510 kts 110°
2026-05-06 16:52 40.43740 51.66556 26859 ft 513 kts 110°
2026-05-06 16:52 40.42850 51.71109 27239 ft 518 kts 110°
2026-05-06 16:52 40.41963 51.75715 27620 ft 522 kts 110°
2026-05-06 16:52 40.41084 51.80354 28008 ft 525 kts 110°
2026-05-06 16:53 40.40211 51.85025 28395 ft 529 kts 110°
2026-05-06 16:53 40.39335 51.89741 28734 ft 532 kts 110°
2026-05-06 16:53 40.38456 51.94481 29078 ft 536 kts 110°
2026-05-06 16:53 40.37582 51.99183 29394 ft 540 kts 110°
2026-05-06 16:54 40.36724 52.03788 29754 ft 541 kts 110°
2026-05-06 16:54 40.35827 52.08585 30198 ft 541 kts 110°
2026-05-06 16:54 40.34931 52.13366 30644 ft 539 kts 110°
2026-05-06 16:54 40.34035 52.18135 31135 ft 537 kts 110°
2026-05-06 16:55 40.33142 52.22869 31583 ft 535 kts 111°
2026-05-06 16:55 40.32244 52.27608 31992 ft 534 kts 111°
2026-05-06 16:55 40.31346 52.32333 32370 ft 533 kts 111°
2026-05-06 16:55 40.30449 52.37044 32705 ft 532 kts 111°
2026-05-06 16:56 40.29553 52.41743 33072 ft 532 kts 111°
2026-05-06 16:56 40.27740 52.51163 33026 ft 531 kts 112°
2026-05-06 16:57 40.25145 52.60022 33030 ft 515 kts 124°
2026-05-06 16:57 40.21567 52.67944 32974 ft 504 kts 133°
2026-05-06 16:58 40.17545 52.75451 33002 ft 505 kts 133°
2026-05-06 16:58 40.13519 52.83036 33012 ft 508 kts 133°
2026-05-06 16:59 40.09512 52.90663 32982 ft 510 kts 133°
2026-05-06 16:59 40.05770 52.98566 32984 ft 523 kts 118°
2026-05-06 16:59 40.04763 53.03002 33002 ft 536 kts 106°
2026-05-06 17:00 40.04439 53.07887 32993 ft 547 kts 91°
2026-05-06 17:00 40.05360 53.17708 32990 ft 550 kts 85°
2026-05-06 17:01 40.06438 53.27604 32993 ft 550 kts 86°
2026-05-06 17:01 40.07423 53.37522 32980 ft 550 kts 86°
2026-05-06 17:02 40.08333 53.47427 32977 ft 549 kts 87°
2026-05-06 17:02 40.09221 53.57330 32975 ft 547 kts 87°
2026-05-06 17:03 40.10103 53.67198 32973 ft 546 kts 87°
2026-05-06 17:03 40.10978 53.77031 32973 ft 545 kts 87°
2026-05-06 17:04 40.11841 53.86792 32985 ft 544 kts 87°
2026-05-06 17:04 40.12698 53.96598 32984 ft 543 kts 87°
2026-05-06 17:05 40.13529 54.06207 32946 ft 542 kts 87°
2026-05-06 17:05 40.14369 54.16011 32971 ft 542 kts 87°
2026-05-06 17:06 40.15199 54.25805 32967 ft 542 kts 87°
2026-05-06 17:06 40.16021 54.35603 32968 ft 541 kts 88°
2026-05-06 17:07 40.16834 54.45390 32981 ft 542 kts 88°
2026-05-06 17:07 40.17640 54.55186 32978 ft 542 kts 88°
2026-05-06 17:08 40.18431 54.64918 32965 ft 542 kts 88°
2026-05-06 17:08 40.19221 54.74735 32968 ft 542 kts 88°
2026-05-06 17:09 40.20001 54.84532 32961 ft 542 kts 88°
2026-05-06 17:09 40.20774 54.94350 32952 ft 543 kts 88°
2026-05-06 17:10 40.21527 55.04010 32946 ft 543 kts 88°
2026-05-06 17:10 40.22286 55.13855 32944 ft 544 kts 88°
2026-05-06 17:11 40.23037 55.23715 32932 ft 544 kts 88°
2026-05-06 17:11 40.23780 55.33570 32935 ft 544 kts 88°
2026-05-06 17:12 40.24515 55.43444 32922 ft 544 kts 88°
2026-05-06 17:12 40.25235 55.53226 32910 ft 543 kts 88°
2026-05-06 17:13 40.25952 55.63068 32901 ft 543 kts 88°
2026-05-06 17:13 40.26829 55.72927 32919 ft 546 kts 82°
2026-05-06 17:14 40.28820 55.82567 32905 ft 551 kts 71°
2026-05-06 17:14 40.31546 55.91969 32912 ft 552 kts 70°
2026-05-06 17:15 40.34239 56.01236 32908 ft 553 kts 71°
2026-05-06 17:15 40.36902 56.10636 32890 ft 553 kts 71°
2026-05-06 17:16 40.39549 56.20116 32900 ft 553 kts 71°
2026-05-06 17:16 40.42188 56.29594 32883 ft 552 kts 71°
2026-05-06 17:17 40.44815 56.39046 32880 ft 550 kts 71°
2026-05-06 17:17 40.47431 56.48490 32876 ft 549 kts 71°
2026-05-06 17:18 40.50031 56.57914 32867 ft 548 kts 71°
2026-05-06 17:18 40.52600 56.67256 32871 ft 547 kts 71°
2026-05-06 17:19 40.55174 56.76655 32868 ft 546 kts 71°
2026-05-06 17:19 40.57743 56.86071 32873 ft 547 kts 72°
2026-05-06 17:20 40.60311 56.95520 32869 ft 549 kts 72°
2026-05-06 17:20 40.62838 57.04850 32860 ft 551 kts 72°
2026-05-06 17:21 40.65400 57.14360 32854 ft 551 kts 72°
2026-05-06 17:21 40.67937 57.23889 32857 ft 551 kts 72°
2026-05-06 17:22 40.70463 57.33426 32857 ft 551 kts 72°
2026-05-06 17:22 40.72557 57.41348 32840 ft 550 kts 72°
2026-05-06 17:23 40.75062 57.50853 32846 ft 548 kts 72°
2026-05-06 17:23 40.77958 57.61883 32843 ft 547 kts 72°
2026-05-06 17:24 40.80102 57.69790 32839 ft 546 kts 70°
2026-05-06 17:24 40.82782 57.79088 32840 ft 545 kts 69°
2026-05-06 17:25 40.85486 57.88439 32834 ft 544 kts 70°
2026-05-06 17:25 40.88151 57.97799 32833 ft 544 kts 70°
2026-05-06 17:26 40.90750 58.07020 32829 ft 544 kts 70°
2026-05-06 17:26 40.93384 58.16406 32824 ft 544 kts 70°
2026-05-06 17:27 40.96012 58.25798 32822 ft 544 kts 70°
2026-05-06 17:27 40.98636 58.35204 32819 ft 545 kts 70°
2026-05-06 17:28 41.01247 58.44598 32815 ft 545 kts 70°
2026-05-06 17:28 41.03858 58.54029 32808 ft 545 kts 70°
2026-05-06 17:29 41.06458 58.63457 32802 ft 544 kts 70°
2026-05-06 17:29 41.09040 58.72851 32802 ft 541 kts 70°
2026-05-06 17:30 41.11586 58.82149 32793 ft 539 kts 70°
2026-05-06 17:30 41.14136 58.91501 32806 ft 538 kts 70°
2026-05-06 17:31 41.16636 59.00697 32797 ft 538 kts 70°
2026-05-06 17:31 41.19167 59.10048 32796 ft 539 kts 70°
2026-05-06 17:32 41.21688 59.19395 32798 ft 539 kts 70°
2026-05-06 17:32 41.24216 59.28803 32788 ft 540 kts 70°
2026-05-06 17:33 41.26733 59.38205 32792 ft 541 kts 70°
2026-05-06 17:33 41.29248 59.47638 32791 ft 541 kts 70°
2026-05-06 17:34 41.31749 59.57057 32786 ft 541 kts 70°
2026-05-06 17:34 41.34249 59.66499 32782 ft 540 kts 70°
2026-05-06 17:35 41.36627 59.75953 32784 ft 538 kts 72°
2026-05-06 17:35 41.38916 59.85456 32792 ft 536 kts 72°
2026-05-06 17:36 41.42330 59.99559 32803 ft 534 kts 72°
2026-05-06 17:36 41.44578 60.08825 32808 ft 532 kts 72°
2026-05-06 17:37 41.46842 60.18206 32816 ft 530 kts 72°
2026-05-06 17:37 41.49058 60.27522 32825 ft 529 kts 72°
2026-05-06 17:38 41.51258 60.36938 32836 ft 530 kts 72°
2026-05-06 17:38 41.53446 60.46322 32838 ft 531 kts 72°
2026-05-06 17:39 41.55630 60.55705 32831 ft 532 kts 72°
2026-05-06 17:39 41.57819 60.65139 32829 ft 532 kts 72°
2026-05-06 17:40 41.60168 60.74528 32828 ft 531 kts 70°
2026-05-06 17:40 41.62662 60.83761 32833 ft 530 kts 70°
2026-05-06 17:41 41.65149 60.93069 32844 ft 530 kts 70°
2026-05-06 17:41 41.67534 61.02178 32854 ft 529 kts 70°
2026-05-06 17:42 41.69962 61.11544 32851 ft 529 kts 70°
2026-05-06 17:42 41.72358 61.20812 32855 ft 528 kts 70°
2026-05-06 17:43 41.74748 61.30080 32856 ft 528 kts 71°
2026-05-06 17:43 41.77140 61.39392 32862 ft 528 kts 71°
2026-05-06 17:44 41.79525 61.48712 32856 ft 529 kts 71°
2026-05-06 17:44 41.81902 61.58041 32868 ft 528 kts 71°
2026-05-06 17:45 41.84259 61.67325 32866 ft 528 kts 71°
2026-05-06 17:45 41.86627 61.76685 32864 ft 527 kts 71°
2026-05-06 17:46 41.88961 61.86005 32856 ft 526 kts 71°
2026-05-06 17:46 41.91267 61.95272 32867 ft 525 kts 71°
2026-05-06 17:47 41.93542 62.04429 32864 ft 523 kts 71°
2026-05-06 17:47 41.95833 62.13684 32877 ft 523 kts 71°
2026-05-06 17:48 41.98121 62.22952 32877 ft 523 kts 71°
2026-05-06 17:48 42.00395 62.32200 32877 ft 523 kts 72°
2026-05-06 17:49 42.02669 62.41487 32880 ft 523 kts 72°
2026-05-06 17:49 42.04925 62.50740 32866 ft 524 kts 72°
2026-05-06 17:50 42.07198 62.60094 32868 ft 524 kts 72°
2026-05-06 17:50 42.09467 62.69462 32873 ft 524 kts 72°
2026-05-06 17:51 42.11726 62.78798 32866 ft 524 kts 72°
2026-05-06 17:51 42.13961 62.88107 32869 ft 524 kts 72°
2026-05-06 17:52 42.16185 62.97415 32886 ft 524 kts 72°
2026-05-06 17:52 42.18394 63.06662 32876 ft 524 kts 72°
2026-05-06 17:53 42.20629 63.16002 32867 ft 523 kts 72°
2026-05-06 17:53 42.22847 63.25306 32895 ft 523 kts 72°
2026-05-06 17:54 42.25063 63.34648 32893 ft 523 kts 72°
2026-05-06 17:54 42.27265 63.43978 32897 ft 522 kts 72°
2026-05-06 17:55 42.29469 63.53353 32900 ft 521 kts 72°
2026-05-06 17:55 42.31655 63.62689 32901 ft 521 kts 72°
2026-05-06 17:56 42.33822 63.71982 32902 ft 520 kts 72°
2026-05-06 17:56 42.35987 63.81306 32905 ft 520 kts 73°
2026-05-06 17:57 42.38141 63.90619 32910 ft 519 kts 73°
2026-05-06 17:57 42.40289 63.99944 32911 ft 519 kts 73°
2026-05-06 17:58 42.42354 64.09155 32912 ft 518 kts 73°
2026-05-06 17:58 42.44402 64.18441 32912 ft 517 kts 73°
2026-05-06 17:59 42.46472 64.27754 32912 ft 517 kts 73°
2026-05-06 17:59 42.48577 64.37093 32912 ft 516 kts 73°
2026-05-06 18:00 42.50670 64.46404 32916 ft 517 kts 73°
2026-05-06 18:00 42.52749 64.55709 32915 ft 517 kts 73°
2026-05-06 18:01 42.54829 64.65078 32916 ft 517 kts 73°
2026-05-06 18:01 42.56876 64.74337 32913 ft 517 kts 73°
2026-05-06 18:02 42.58933 64.83684 32915 ft 516 kts 73°
2026-05-06 18:02 42.60987 64.93055 32917 ft 515 kts 74°
2026-05-06 18:03 42.62982 65.02194 32915 ft 515 kts 74°
2026-05-06 18:03 42.65007 65.11515 32919 ft 514 kts 74°
2026-05-06 18:04 42.67013 65.20789 32918 ft 514 kts 74°
2026-05-06 18:04 42.69025 65.30131 32905 ft 514 kts 74°
2026-05-06 18:05 42.71015 65.39413 32920 ft 514 kts 74°
2026-05-06 18:05 42.73009 65.48754 32919 ft 515 kts 74°
2026-05-06 18:06 42.75007 65.58156 32919 ft 516 kts 74°
2026-05-06 18:06 42.77000 65.67576 32916 ft 517 kts 75°
2026-05-06 18:07 42.78972 65.76934 32920 ft 517 kts 75°
2026-05-06 18:07 42.80971 65.86379 32917 ft 518 kts 75°
2026-05-06 18:08 42.82959 65.95773 32914 ft 518 kts 75°
2026-05-06 18:08 42.84904 66.05017 32918 ft 517 kts 75°
2026-05-06 18:09 42.86876 66.14503 32924 ft 517 kts 75°
2026-05-06 18:09 42.88776 66.23908 32923 ft 517 kts 75°
2026-05-06 18:10 42.90353 66.31762 32919 ft 516 kts 76°
2026-05-06 18:10 42.92247 66.41198 32925 ft 516 kts 76°
2026-05-06 18:11 42.94142 66.50665 32928 ft 515 kts 76°
2026-05-06 18:11 42.96328 66.61631 32922 ft 515 kts 76°
2026-05-06 18:12 42.97927 66.69523 32934 ft 514 kts 75°
2026-05-06 18:12 42.99819 66.78874 32926 ft 513 kts 76°
2026-05-06 18:13 43.01687 66.88266 32942 ft 513 kts 76°
2026-05-06 18:13 43.03542 66.97674 32941 ft 512 kts 76°
2026-05-06 18:14 43.05358 67.06919 32943 ft 511 kts 76°
2026-05-06 18:14 43.07195 67.16305 32946 ft 510 kts 76°
2026-05-06 18:15 43.09022 67.25683 32951 ft 510 kts 76°
2026-05-06 18:15 43.10838 67.35049 32953 ft 509 kts 76°
2026-05-06 18:16 43.12646 67.44412 32959 ft 508 kts 76°
2026-05-06 18:16 43.14440 67.53773 32958 ft 508 kts 77°
2026-05-06 18:17 43.16223 67.63138 32956 ft 508 kts 77°
2026-05-06 18:17 43.18001 67.72514 32965 ft 508 kts 77°
2026-05-06 18:18 43.19773 67.81898 32965 ft 509 kts 77°
2026-05-06 18:18 43.21535 67.91231 32969 ft 509 kts 77°
2026-05-06 18:19 43.23275 68.00481 32967 ft 509 kts 77°
2026-05-06 18:19 43.25036 68.09895 32973 ft 509 kts 77°
2026-05-06 18:20 43.26790 68.19322 32981 ft 510 kts 77°
2026-05-06 18:20 43.28535 68.28747 32980 ft 510 kts 77°
2026-05-06 18:21 43.30224 68.38201 32984 ft 509 kts 80°
2026-05-06 18:21 43.31395 68.47786 32964 ft 508 kts 82°
2026-05-06 18:22 43.32529 68.57368 32968 ft 508 kts 82°
2026-05-06 18:22 43.33499 68.66986 32960 ft 508 kts 84°
2026-05-06 18:23 43.34243 68.76568 32980 ft 508 kts 85°
2026-05-06 18:23 43.35016 68.86230 32985 ft 509 kts 84°
2026-05-06 18:24 43.35824 68.95895 33003 ft 509 kts 84°
2026-05-06 18:24 43.36616 69.05401 33012 ft 509 kts 84°
2026-05-06 18:25 43.37412 69.15075 33015 ft 509 kts 84°
2026-05-06 18:25 43.38223 69.24760 33014 ft 510 kts 84°
2026-05-06 18:26 43.39067 69.34438 33015 ft 510 kts 83°
2026-05-06 18:26 43.39896 69.44045 33018 ft 509 kts 83°
2026-05-06 18:27 43.40711 69.53669 33020 ft 509 kts 83°
2026-05-06 18:27 43.41519 69.63344 33026 ft 509 kts 83°
2026-05-06 18:28 43.42321 69.73021 33032 ft 508 kts 83°
2026-05-06 18:28 43.43124 69.82607 33027 ft 508 kts 83°
2026-05-06 18:29 43.43950 69.92247 33024 ft 507 kts 83°
2026-05-06 18:29 43.44755 70.01737 33028 ft 506 kts 83°
2026-05-06 18:30 43.45558 70.11358 33018 ft 506 kts 83°
2026-05-06 18:30 43.46352 70.20986 33012 ft 506 kts 83°
2026-05-06 18:31 43.47138 70.30614 33013 ft 506 kts 83°
2026-05-06 18:31 43.47917 70.40255 33005 ft 506 kts 83°
2026-05-06 18:32 43.48688 70.49899 33002 ft 507 kts 83°
2026-05-06 18:32 43.49451 70.59542 32999 ft 507 kts 83°
2026-05-06 18:33 43.50206 70.69195 32993 ft 507 kts 83°
2026-05-06 18:33 43.50949 70.78794 33001 ft 507 kts 83°
2026-05-06 18:34 43.51688 70.88463 32997 ft 507 kts 83°
2026-05-06 18:34 43.52411 70.98114 32993 ft 506 kts 83°
2026-05-06 18:35 43.53112 71.07612 32997 ft 506 kts 83°
2026-05-06 18:35 43.53817 71.17271 32995 ft 505 kts 83°
2026-05-06 18:36 43.54513 71.26911 32991 ft 505 kts 83°
2026-05-06 18:36 43.55201 71.36545 32992 ft 505 kts 83°
2026-05-06 18:37 43.55768 71.44561 32991 ft 505 kts 83°
2026-05-06 18:37 43.56549 71.55765 33000 ft 505 kts 83°
2026-05-06 18:38 43.57212 71.65401 32990 ft 505 kts 83°
2026-05-06 18:38 43.57867 71.75029 32991 ft 504 kts 83°
2026-05-06 18:39 43.58513 71.84652 32991 ft 503 kts 83°
2026-05-06 18:40 43.59465 71.99067 32997 ft 502 kts 83°
2026-05-06 18:40 43.60079 72.08504 32992 ft 501 kts 83°
2026-05-06 18:41 43.60689 72.18012 32995 ft 500 kts 83°
2026-05-06 18:41 43.61294 72.27574 33011 ft 499 kts 82°
2026-05-06 18:42 43.61887 72.37065 32991 ft 498 kts 82°
2026-05-06 18:42 43.62466 72.46462 32994 ft 497 kts 82°
2026-05-06 18:43 43.63044 72.55958 33002 ft 496 kts 82°
2026-05-06 18:43 43.63613 72.65448 33005 ft 495 kts 82°
2026-05-06 18:44 43.64170 72.74859 32995 ft 495 kts 82°
2026-05-06 18:44 43.64723 72.84334 33004 ft 495 kts 82°
2026-05-06 18:45 43.65268 72.93810 33006 ft 495 kts 82°
2026-05-06 18:45 43.65795 73.03130 33001 ft 495 kts 82°
2026-05-06 18:46 43.66326 73.12639 33002 ft 495 kts 82°
2026-05-06 18:46 43.66848 73.22121 32998 ft 495 kts 82°
2026-05-06 18:47 43.67362 73.31617 33009 ft 495 kts 82°
2026-05-06 18:47 43.67867 73.41107 32996 ft 495 kts 82°
2026-05-06 18:48 43.68362 73.50536 32997 ft 495 kts 82°
2026-05-06 18:48 43.68852 73.60012 32997 ft 494 kts 82°
2026-05-06 18:49 43.69316 73.69496 33005 ft 495 kts 83°
2026-05-06 18:49 43.68891 73.79045 32998 ft 501 kts 95°
2026-05-06 18:50 43.67346 73.88482 33010 ft 503 kts 100°
2026-05-06 18:50 43.65657 73.97862 33010 ft 503 kts 99°
2026-05-06 18:51 43.64048 74.07076 33014 ft 501 kts 98°
2026-05-06 18:51 43.62439 74.16404 33020 ft 499 kts 98°
2026-05-06 18:52 43.60821 74.25698 33030 ft 497 kts 98°
2026-05-06 18:52 43.59203 74.34955 33030 ft 496 kts 98°
2026-05-06 18:53 43.57582 74.44199 33045 ft 495 kts 98°
2026-05-06 18:53 43.55970 74.53326 32734 ft 485 kts 98°
2026-05-06 18:53 43.55174 74.57824 32422 ft 482 kts 98°
2026-05-06 18:54 43.54381 74.62303 32075 ft 480 kts 98°
2026-05-06 18:54 43.53589 74.66767 31744 ft 478 kts 98°
2026-05-06 18:54 43.52812 74.71134 31292 ft 473 kts 98°
2026-05-06 18:54 43.52029 74.75517 30838 ft 469 kts 98°
2026-05-06 18:55 43.51251 74.79858 30363 ft 465 kts 98°
2026-05-06 18:55 43.50470 74.84166 29858 ft 462 kts 99°
2026-05-06 18:55 43.49685 74.88443 29313 ft 458 kts 99°
2026-05-06 18:55 43.48905 74.92682 28827 ft 454 kts 99°
2026-05-06 18:56 43.48131 74.96872 28340 ft 450 kts 99°
2026-05-06 18:56 43.47390 75.00889 27880 ft 446 kts 99°
2026-05-06 18:56 43.46885 75.03626 27576 ft 443 kts 99°
2026-05-06 18:56 43.46130 75.07719 27125 ft 440 kts 100°
2026-05-06 18:57 43.45378 75.11784 26655 ft 437 kts 100°
2026-05-06 18:57 43.44629 75.15827 26196 ft 434 kts 101°
2026-05-06 18:57 43.43885 75.19827 25745 ft 431 kts 101°
2026-05-06 18:57 43.43145 75.23807 25295 ft 428 kts 101°
2026-05-06 18:58 43.42416 75.27765 24860 ft 425 kts 101°
2026-05-06 18:58 43.41695 75.31697 24414 ft 423 kts 101°
2026-05-06 18:58 43.40975 75.35619 23959 ft 421 kts 101°
2026-05-06 18:58 43.40257 75.39522 23493 ft 420 kts 101°
2026-05-06 18:59 43.39542 75.43398 23008 ft 417 kts 102°
2026-05-06 18:59 43.38828 75.47253 22545 ft 414 kts 102°
2026-05-06 18:59 43.38125 75.51082 22088 ft 408 kts 99°
2026-05-06 18:59 43.37925 75.54905 21663 ft 398 kts 81°
2026-05-06 19:00 43.38566 75.58498 21263 ft 387 kts 66°
2026-05-06 19:00 43.39575 75.61908 20873 ft 384 kts 65°
2026-05-06 19:00 43.40606 75.65334 20458 ft 382 kts 65°
2026-05-06 19:00 43.41604 75.68659 20063 ft 380 kts 65°
2026-05-06 19:01 43.42602 75.72020 19660 ft 379 kts 66°
2026-05-06 19:01 43.43589 75.75372 19259 ft 378 kts 66°
2026-05-06 19:01 43.44568 75.78727 18858 ft 377 kts 67°
2026-05-06 19:01 43.45540 75.82073 18455 ft 376 kts 67°
2026-05-06 19:02 43.46508 75.85420 17992 ft 376 kts 67°
2026-05-06 19:02 43.47473 75.88763 17556 ft 375 kts 67°
2026-05-06 19:02 43.48434 75.92101 17134 ft 374 kts 67°
2026-05-06 19:02 43.49392 75.95430 16736 ft 373 kts 68°
2026-05-06 19:03 43.50346 75.98752 16323 ft 372 kts 68°
2026-05-06 19:03 43.51266 76.01960 15926 ft 372 kts 68°
2026-05-06 19:03 43.52217 76.05276 15513 ft 372 kts 68°
2026-05-06 19:03 43.53164 76.08588 15101 ft 372 kts 68°
2026-05-06 19:04 43.54113 76.11908 14691 ft 372 kts 68°
2026-05-06 19:04 43.55059 76.15224 14290 ft 373 kts 68°
2026-05-06 19:04 43.56009 76.18556 13857 ft 374 kts 69°
2026-05-06 19:04 43.56961 76.21901 13352 ft 376 kts 69°
2026-05-06 19:05 43.57916 76.25256 12912 ft 376 kts 69°
2026-05-06 19:05 43.58867 76.28607 12463 ft 375 kts 69°
2026-05-06 19:05 43.59672 76.31996 12022 ft 369 kts 82°
2026-05-06 19:05 43.59659 76.35486 11730 ft 359 kts 102°
2026-05-06 19:06 43.59157 76.38812 11465 ft 352 kts 104°
2026-05-06 19:06 43.58635 76.42095 11183 ft 347 kts 104°
2026-05-06 19:06 43.58124 76.45318 10909 ft 340 kts 103°
2026-05-06 19:06 43.57639 76.48412 10626 ft 318 kts 103°
2026-05-06 19:07 43.57195 76.51284 10372 ft 298 kts 103°
2026-05-06 19:07 43.56770 76.54039 10171 ft 290 kts 103°
2026-05-06 19:07 43.56355 76.56738 9942 ft 286 kts 103°
2026-05-06 19:07 43.55950 76.59377 9713 ft 284 kts 103°
2026-05-06 19:08 43.55543 76.62027 9489 ft 282 kts 103°
2026-05-06 19:08 43.55139 76.64661 9265 ft 279 kts 103°
2026-05-06 19:08 43.54738 76.67270 9037 ft 277 kts 103°
2026-05-06 19:08 43.54341 76.69857 8825 ft 275 kts 103°
2026-05-06 19:09 43.53946 76.72428 8605 ft 274 kts 103°
2026-05-06 19:09 43.53548 76.75007 8404 ft 276 kts 103°
2026-05-06 19:09 43.53147 76.77611 8194 ft 279 kts 102°
2026-05-06 19:09 43.52743 76.80225 7965 ft 279 kts 102°
2026-05-06 19:10 43.52340 76.82837 7750 ft 278 kts 102°
2026-05-06 19:10 43.51937 76.85440 7534 ft 276 kts 102°
2026-05-06 19:10 43.51542 76.87988 7320 ft 268 kts 103°
2026-05-06 19:10 43.51154 76.90478 7152 ft 264 kts 102°
2026-05-06 19:11 43.50952 76.92928 6958 ft 260 kts 87°
2026-05-06 19:11 43.51142 76.95404 6818 ft 260 kts 82°
2026-05-06 19:11 43.51411 76.97861 6652 ft 258 kts 81°
2026-05-06 19:11 43.51665 77.00190 6483 ft 250 kts 82°
2026-05-06 19:12 43.51907 77.02514 6279 ft 242 kts 82°
2026-05-06 19:12 43.52134 77.04798 6091 ft 240 kts 82°
2026-05-06 19:12 43.52352 77.07076 5921 ft 239 kts 82°
2026-05-06 19:12 43.52565 77.09348 5764 ft 239 kts 83°
2026-05-06 19:13 43.52774 77.11614 5579 ft 239 kts 83°
2026-05-06 19:13 43.52982 77.13887 5419 ft 239 kts 83°
2026-05-06 19:13 43.53099 77.16145 5216 ft 236 kts 98°
2026-05-06 19:13 43.52652 77.18301 5060 ft 233 kts 112°
2026-05-06 19:14 43.52004 77.20353 4907 ft 234 kts 114°
2026-05-06 19:14 43.51338 77.22406 4796 ft 235 kts 114°
2026-05-06 19:14 43.50684 77.24441 4692 ft 229 kts 114°
2026-05-06 19:14 43.49940 77.26299 4438 ft 216 kts 137°
2026-05-06 19:15 43.48644 77.27040 4274 ft 203 kts 185°
2026-05-06 19:15 43.47279 77.26383 4235 ft 213 kts 205°
2026-05-06 19:15 43.45912 77.25596 4200 ft 212 kts 210°
2026-05-06 19:15 43.44936 77.24180 4189 ft 201 kts 242°
2026-05-06 19:16 43.44299 77.22534 4192 ft 194 kts 239°
2026-05-06 19:16 43.43576 77.20988 4223 ft 192 kts 236°
2026-05-06 19:16 43.42836 77.19474 4198 ft 186 kts 236°
2026-05-06 19:16 43.42134 77.18041 4214 ft 175 kts 236°
2026-05-06 19:17 43.41457 77.16661 3981 ft 172 kts 236°
2026-05-06 19:17 43.40797 77.15317 3768 ft 168 kts 236°
2026-05-06 19:17 43.40149 77.13992 3549 ft 168 kts 236°
2026-05-06 19:17 43.39493 77.12661 3354 ft 168 kts 236°
2026-05-06 19:18 43.38841 77.11340 3133 ft 166 kts 235°
2026-05-06 19:18 43.38197 77.10031 2912 ft 164 kts 236°
2026-05-06 19:18 43.37570 77.08729 2729 ft 163 kts 235°
2026-05-06 19:18 43.36929 77.07446 2495 ft 163 kts 235°
2026-05-06 19:19 43.36299 77.06153 2301 ft 163 kts 237°
2026-05-06 19:19 43.35696 77.04914 2235 ft 141 kts 236°
2026-05-06 19:19 43.35232 77.03977 2231 ft 97 kts 236°
2026-05-06 19:19 43.34932 77.03371 2237 ft 56 kts 236°
2026-05-06 19:20 43.34780 77.03060 2228 ft 30 kts 235°
2026-05-06 19:20 43.34664 77.02826 2234 ft 30 kts 236°
2026-05-06 19:20 43.34554 77.02604 2239 ft 22 kts 236°
2026-05-06 19:20 43.34498 77.02461 2240 ft 16 kts 256°
2026-05-06 19:21 43.34498 77.02308 2233 ft 16 kts 273°
2026-05-06 19:21 43.34500 77.02262 2235 ft 1 kts 273°
2026-05-06 19:21 43.34501 77.02237 2234 ft 4 kts 273°
2026-05-06 19:21 43.34503 77.02192 2234 ft 5 kts 273°
2026-05-06 19:22 43.34504 77.02135 2233 ft 6 kts 272°
2026-05-06 19:22 43.34506 77.02071 2232 ft 7 kts 272°
2026-05-06 19:22 43.34508 77.02004 2232 ft 7 kts 273°
2026-05-06 19:22 43.34511 77.01935 2231 ft 7 kts 273°
2026-05-06 19:23 43.34514 77.01866 2226 ft 7 kts 274°
2026-05-06 19:23 43.34517 77.01797 2230 ft 7 kts 274°
2026-05-06 19:23 43.34521 77.01728 2228 ft 7 kts 274°
2026-05-06 19:23 43.34524 77.01659 2227 ft 7 kts 273°
2026-05-06 19:24 43.34525 77.01590 2227 ft 7 kts 272°
2026-05-06 19:24 43.34531 77.01522 2227 ft 7 kts 292°
2026-05-06 19:24 43.34572 77.01483 2225 ft 7 kts 338°
2026-05-06 19:24 43.34621 77.01465 2227 ft 7 kts 350°
2026-05-06 19:25 43.34671 77.01447 2228 ft 7 kts 348°
2026-05-06 19:25 43.34722 77.01451 2227 ft 7 kts
2026-05-06 19:25 43.34772 77.01468 2227 ft 7 kts 15°
2026-05-06 19:25 43.34812 77.01505 2226 ft 7 kts 63°
2026-05-06 19:26 43.34815 77.01576 2229 ft 8 kts 94°
2026-05-06 19:26 43.34812 77.01648 2227 ft 8 kts 94°
2026-05-06 19:26 43.34808 77.01719 2227 ft 8 kts 94°
2026-05-06 19:26 43.34805 77.01791 2230 ft 8 kts 94°
2026-05-06 19:27 43.34801 77.01862 2226 ft 8 kts 94°
2026-05-06 19:27 43.34798 77.01934 2229 ft 8 kts 94°
2026-05-06 19:27 43.34794 77.02006 2231 ft 8 kts 94°
2026-05-06 19:27 43.34791 77.02077 2231 ft 8 kts 94°
2026-05-06 19:28 43.34787 77.02149 2231 ft 8 kts 94°
2026-05-06 19:28 43.34785 77.02187 2224 ft 0 kts 94°
2026-05-06 19:28 43.34787 77.02192 2228 ft 3 kts 75°
2026-05-06 19:28 43.34800 77.02211 2230 ft 3 kts 32°
2026-05-06 19:29 43.34825 77.02220 2227 ft 7 kts 15°
2026-05-06 19:29 43.34886 77.02244 2227 ft 9 kts 16°
2026-05-06 19:29 43.34950 77.02263 2228 ft 9 kts 355°
2026-05-06 19:29 43.35005 77.02216 2227 ft 9 kts 307°
2026-05-06 19:30 43.35018 77.02144 2228 ft 8 kts 275°
2026-05-06 19:30 43.35021 77.02093 2230 ft 3 kts 274°
2026-05-06 19:30 43.35036 77.02068 2227 ft 4 kts 330°
2026-05-06 19:30 43.35060 77.02061 2225 ft 1 kts 352°
2026-05-06 19:31 43.35067 77.02059 2226 ft 1 kts 352°
2026-05-06 19:31 43.35074 77.02058 2225 ft 1 kts 354°
2026-05-06 19:31 43.35110 77.02060 2228 ft 2 kts
2026-05-06 19:32 43.35111 77.02060 2228 ft 0 kts